period_start,C,m1,H,J0,J1,J2,J3,J4,J5,JA,JB,JC,JD,JJ,JK,JN,#
2017-09-07 00:03:19,0.00,0.04,0.00,24.42,26.84,29.60,13.63,41.58,1014.17,2035.05,3565.00,3081.00,3534.46,599.86,591.81,3.57,0000 0000 0000 0000 000000
2017-09-07 00:08:20,0.01,0.04,0.00,24.39,26.85,29.61,13.67,41.61,1014.17,2035.02,3564.82,3080.93,3534.02,599.19,591.01,3.62,0000 0000 0000 0000 000000
2017-09-07 00:13:21,0.02,0.04,0.00,24.42,26.85,29.63,13.72,41.54,1014.18,2035.00,3564.14,3080.55,3533.99,600.33,592.06,3.67,0000 0000 0000 0000 000000
2017-09-07 00:18:23,0.02,0.04,0.00,24.35,26.87,29.65,13.77,41.97,1014.18,2035.00,3563.99,3080.09,3533.62,600.62,592.52,3.72,0000 0000 0000 0000 000000
2017-09-07 00:23:24,0.01,0.04,0.00,24.40,26.87,29.64,13.66,42.02,1014.19,2035.00,3563.72,3080.00,3533.04,599.60,591.40,3.77,0000 0000 0000 0000 000000
2017-09-07 00:28:25,0.00,0.04,0.00,24.51,26.88,29.66,13.69,41.71,1014.19,2035.00,3563.15,3079.99,3533.00,600.13,591.79,3.82,0000 0000 0000 0000 000000
2017-09-07 00:33:26,0.00,0.04,0.00,24.37,26.90,29.68,13.72,41.73,1014.20,2035.00,3563.00,3079.95,3532.93,599.89,591.74,3.87,0000 0000 0000 0000 000000
2017-09-07 00:38:28,0.04,0.04,0.00,24.50,26.90,29.69,13.69,41.54,1014.20,2035.00,3562.38,3079.27,3532.13,600.11,591.73,3.92,0000 0000 0000 0000 000000
2017-09-07 00:43:29,0.00,0.04,0.00,24.31,26.90,29.70,13.75,41.99,1014.21,2035.00,3562.04,3079.03,3532.01,599.87,591.91,3.97,0000 0000 0000 0000 000000
2017-09-07 00:48:30,0.00,0.04,0.00,24.47,26.92,29.69,13.75,41.56,1014.24,2035.00,3561.93,3079.00,3531.93,599.90,591.63,4.02,0000 0000 0000 0000 000000
2017-09-07 00:53:32,0.01,0.05,0.00,24.37,26.92,29.69,13.68,41.52,1014.29,2035.00,3561.53,3078.99,3531.51,599.89,591.80,4.07,0000 0000 0000 0000 000000
2017-09-07 00:58:33,0.16,0.05,0.00,24.34,26.92,29.67,13.76,41.73,1014.32,2035.00,3559.17,3077.41,3529.88,600.46,592.34,4.12,0000 0000 0000 0000 000000
2017-09-07 01:03:34,0.03,0.05,0.00,24.39,26.94,29.70,13.77,41.79,1014.52,2034.99,3557.13,3076.02,3528.34,600.62,592.47,4.17,0000 0000 0000 0000 000000
2017-09-07 01:08:35,-0.01,0.06,0.00,24.37,26.95,29.71,13.93,42.61,1014.51,2034.93,3557.00,3076.00,3528.01,600.90,592.93,4.22,0000 0000 0000 0000 000000
2017-09-07 01:13:37,0.01,0.06,0.00,24.41,26.95,29.70,13.70,41.76,1014.65,2034.93,3556.93,3075.97,3527.99,599.80,591.85,4.27,0000 0000 0000 0000 000000
2017-09-07 01:18:38,0.00,0.06,0.00,24.35,26.95,29.70,13.66,41.53,1014.61,2034.94,3556.66,3075.92,3527.98,599.71,591.87,4.32,0000 0000 0000 0000 000000
2017-09-07 01:23:39,0.01,0.06,0.00,24.45,26.97,29.72,13.68,41.48,1014.65,2034.97,3556.25,3075.85,3527.92,599.86,591.91,4.37,0000 0000 0000 0000 000000
2017-09-07 01:28:41,0.02,0.06,0.00,24.24,26.97,29.71,13.73,42.12,1014.66,2034.88,3556.01,3075.22,3527.26,600.48,592.82,4.42,0000 0000 0000 0000 000000
2017-09-07 01:33:42,-0.03,0.06,0.00,24.38,26.97,29.70,13.59,42.48,1014.66,2034.54,3556.00,3075.01,3527.02,598.82,591.13,4.47,0000 0000 0000 0000 000000
2017-09-07 01:38:44,0.01,0.06,0.00,24.18,26.98,29.72,13.73,42.13,1014.67,2034.62,3555.98,3075.01,3527.00,600.07,592.81,4.52,0000 0000 0000 0000 000000
2017-09-07 01:43:45,0.02,0.06,0.00,24.38,27.00,29.73,13.82,42.05,1014.67,2034.84,3555.93,3075.01,3527.00,600.49,592.49,4.57,0000 0000 0000 0000 000000
2017-09-07 01:48:46,-0.02,0.06,0.00,24.42,27.00,29.77,13.68,42.19,1014.66,2034.60,3555.76,3075.00,3526.99,600.10,592.21,4.62,0000 0000 0000 0000 000000
2017-09-07 01:53:48,-0.02,0.06,0.00,24.41,27.00,29.80,13.72,42.09,1014.67,2034.36,3555.54,3075.00,3526.98,599.57,591.66,4.67,0000 0000 0000 0000 000000
2017-09-07 01:58:49,0.04,0.06,0.00,24.32,27.01,29.75,13.79,41.79,1014.68,2034.65,3555.18,3075.00,3526.98,599.98,592.28,4.72,0000 0000 0000 0000 000000
2017-09-07 02:03:50,-0.02,0.06,0.00,24.33,27.02,29.75,13.72,41.95,1014.70,2034.44,3555.13,3075.00,3526.95,599.84,592.43,4.78,0000 0000 0000 0000 000000
2017-09-07 02:08:52,0.02,0.06,0.00,24.26,27.02,29.75,13.72,41.73,1014.77,2034.62,3555.02,3075.00,3526.92,599.94,592.33,4.83,0000 0000 0000 0000 000000
2017-09-07 02:13:53,-0.02,0.06,0.00,24.32,27.02,29.75,13.66,41.81,1014.91,2034.49,3555.01,3074.98,3526.52,599.35,591.75,4.88,0000 0000 0000 0000 000000
2017-09-07 02:18:54,-0.01,0.06,0.00,24.29,27.03,29.74,13.72,41.66,1015.07,2034.43,3555.00,3074.99,3526.28,599.88,592.53,4.93,0000 0000 0000 0000 000000
2017-09-07 02:23:55,-0.00,0.06,0.00,24.35,27.05,29.75,13.68,41.57,1015.13,2034.25,3555.00,3074.98,3526.09,600.06,592.59,4.98,0000 0000 0000 0000 000000
2017-09-07 02:28:56,-0.01,0.06,0.00,24.28,27.05,29.77,13.86,42.38,1015.13,2034.06,3554.98,3074.90,3526.01,600.65,593.24,5.03,0000 0000 0000 0000 000000
2017-09-07 02:33:57,0.00,0.06,0.00,24.30,27.05,29.77,13.75,42.02,1015.15,2034.03,3554.90,3074.70,3526.00,599.61,592.28,5.08,0000 0000 0000 0000 000000
2017-09-07 02:38:59,0.01,0.06,0.00,24.28,27.06,29.76,13.69,41.78,1015.14,2034.03,3554.87,3074.56,3526.00,599.77,592.25,5.13,0000 0000 0000 0000 000000
2017-09-07 02:44:00,0.01,0.06,0.00,24.34,27.07,29.77,13.68,41.75,1015.15,2034.03,3554.54,3074.30,3525.99,599.76,592.33,5.18,0000 0000 0000 0000 000000
2017-09-07 02:49:02,0.00,0.06,0.00,24.33,27.07,29.78,13.72,41.60,1015.15,2034.01,3554.16,3074.12,3525.96,599.85,592.43,5.23,0000 0000 0000 0000 000000
2017-09-07 02:54:03,0.00,0.06,0.00,24.30,27.08,29.79,13.73,41.73,1015.15,2034.01,3554.04,3074.05,3525.71,600.11,592.47,5.28,0000 0000 0000 0000 000000
2017-09-07 02:59:04,0.00,0.06,0.00,24.23,27.10,29.80,13.77,42.47,1015.16,2034.00,3554.00,3074.02,3525.29,600.23,593.17,5.33,0000 0000 0000 0000 000000
2017-09-07 03:04:06,0.00,0.06,0.00,24.27,27.10,29.80,13.73,42.17,1015.16,2034.00,3554.00,3074.00,3525.03,599.87,592.57,5.38,0000 0000 0000 0000 000000
2017-09-07 03:09:07,0.00,0.06,0.00,24.33,27.10,29.78,13.71,41.59,1015.16,2034.01,3553.98,3074.00,3525.02,599.90,592.48,5.43,0000 0000 0000 0000 000000
2017-09-07 03:14:08,0.00,0.06,0.00,24.29,27.11,29.82,13.78,41.63,1015.18,2034.00,3553.73,3074.00,3525.01,600.19,592.72,5.48,0000 0000 0000 0000 000000
2017-09-07 03:19:09,0.01,0.06,0.00,24.26,27.12,29.82,13.74,41.49,1015.21,2034.01,3553.09,3073.98,3525.00,600.16,592.92,5.53,0000 0000 0000 0000 000000
2017-09-07 03:24:11,0.00,0.06,0.00,24.24,27.12,29.82,13.65,41.57,1015.26,2034.01,3553.02,3073.97,3524.99,599.96,592.68,5.58,0000 0000 0000 0000 000000
2017-09-07 03:29:12,0.01,0.06,0.00,24.22,27.12,29.82,13.77,41.73,1015.40,2034.01,3553.00,3073.77,3524.92,600.06,592.97,5.63,0000 0000 0000 0000 000000
2017-09-07 03:34:13,0.00,0.06,0.00,24.28,27.14,29.83,13.77,41.49,1015.52,2034.00,3552.99,3073.53,3524.72,600.21,592.87,5.68,0000 0000 0000 0000 000000
2017-09-07 03:39:15,0.00,0.06,0.00,24.35,27.15,29.84,13.76,41.49,1015.60,2034.01,3552.98,3073.69,3524.74,600.22,592.96,5.73,0000 0000 0000 0000 000000
2017-09-07 03:44:16,0.01,0.06,0.00,24.23,27.15,29.84,13.76,41.73,1015.61,2034.00,3552.98,3073.49,3524.26,600.06,593.05,5.78,0000 0000 0000 0000 000000
2017-09-07 03:49:17,0.01,0.06,0.00,24.19,27.15,29.86,13.77,42.19,1015.64,2034.00,3552.80,3073.30,3524.03,600.12,593.27,5.83,0000 0000 0000 0000 000000
2017-09-07 03:54:19,0.01,0.06,0.00,24.18,27.17,29.85,13.78,42.09,1015.64,2034.00,3552.29,3073.03,3524.00,600.05,593.17,5.88,0000 0000 0000 0000 000000
2017-09-07 03:59:20,0.00,0.06,0.00,24.19,27.17,29.86,13.77,41.52,1015.64,2034.00,3552.22,3073.04,3524.00,599.96,593.04,5.93,0000 0000 0000 0000 000000
2017-09-07 04:04:21,0.00,0.06,0.00,24.21,27.17,29.86,13.75,41.64,1015.64,2034.00,3552.02,3073.00,3523.98,600.05,593.19,5.98,0000 0000 0000 0000 000000
2017-09-07 04:09:22,0.00,0.06,0.00,24.23,27.17,29.86,13.72,41.63,1015.65,2033.99,3552.01,3073.00,3523.97,599.86,592.89,6.03,0000 0000 0000 0000 000000
2017-09-07 04:14:24,0.00,0.06,0.00,24.17,27.18,29.87,13.73,41.61,1015.66,2033.98,3552.01,3073.00,3523.93,599.97,593.16,6.08,0000 0000 0000 0000 000000
2017-09-07 04:19:25,0.01,0.06,0.00,24.14,27.20,29.87,13.74,41.61,1015.67,2033.98,3552.00,3072.99,3523.45,600.07,593.24,6.13,0000 0000 0000 0000 000000
2017-09-07 04:24:26,0.00,0.06,0.00,24.26,27.20,29.88,13.73,41.90,1015.82,2033.98,3552.00,3072.99,3523.13,600.55,593.53,6.18,0000 0000 0000 0000 000000
2017-09-07 04:29:27,-0.00,0.06,0.00,24.21,27.20,29.88,13.84,42.30,1015.89,2033.92,3551.99,3072.98,3523.02,599.59,592.67,6.23,0000 0000 0000 0000 000000
2017-09-07 04:34:29,0.00,0.06,0.00,24.18,27.20,29.89,13.77,41.78,1015.84,2033.93,3551.90,3072.98,3523.00,599.53,592.76,6.28,0000 0000 0000 0000 000000
2017-09-07 04:39:30,-0.00,0.06,0.00,24.20,27.21,29.89,13.70,41.62,1015.85,2033.91,3551.89,3072.98,3523.00,599.69,592.84,6.33,0000 0000 0000 0000 000000
2017-09-07 04:44:31,-0.01,0.06,0.00,24.16,27.22,29.90,13.80,41.58,1015.99,2033.82,3551.58,3072.95,3522.99,600.48,593.95,6.38,0000 0000 0000 0000 000000
2017-09-07 04:49:33,-0.02,0.06,0.00,24.27,27.22,29.90,13.72,41.62,1016.07,2033.56,3551.66,3072.96,3522.98,599.77,592.97,6.43,0000 0000 0000 0000 000000
2017-09-07 04:54:34,-0.02,0.06,0.00,24.16,27.22,29.92,13.81,42.20,1016.07,2033.25,3551.13,3072.73,3522.91,600.54,593.76,6.48,0000 0000 0000 0000 000000
2017-09-07 04:59:35,0.01,0.06,0.00,24.18,27.23,29.91,13.85,42.14,1016.12,2033.18,3551.01,3072.59,3522.82,600.57,593.95,6.53,0000 0000 0000 0000 000000
2017-09-07 05:04:36,0.01,0.06,0.00,24.27,27.24,29.91,13.81,41.83,1016.11,2033.15,3550.99,3072.30,3522.31,600.38,593.56,6.58,0000 0000 0000 0000 000000
2017-09-07 05:09:38,0.00,0.06,0.00,24.20,27.25,29.92,13.72,41.57,1016.06,2033.11,3550.93,3072.08,3522.07,599.76,592.98,6.63,0000 0000 0000 0000 000000
2017-09-07 05:14:39,0.00,0.06,0.00,24.15,27.25,29.92,13.70,41.62,1016.05,2033.05,3550.88,3072.04,3522.03,599.31,592.84,6.68,0000 0000 0000 0000 000000
2017-09-07 05:19:40,0.00,0.06,0.00,24.10,27.25,29.92,13.73,41.65,1016.01,2033.06,3550.67,3072.03,3522.01,600.06,593.39,6.73,0000 0000 0000 0000 000000
2017-09-07 05:24:41,0.00,0.06,0.00,24.16,27.25,29.94,13.83,41.83,1016.02,2033.04,3550.29,3072.01,3522.00,600.72,594.07,6.78,0000 0000 0000 0000 000000
2017-09-07 05:29:43,0.00,0.06,0.00,24.13,27.25,29.93,13.71,42.15,1016.06,2033.01,3550.01,3072.00,3521.98,599.45,592.84,6.83,0000 0000 0000 0000 000000
2017-09-07 05:34:44,0.00,0.06,0.00,24.12,27.27,29.94,13.78,41.79,1016.10,2033.02,3550.00,3072.00,3521.97,599.97,593.37,6.88,0000 0000 0000 0000 000000
2017-09-07 05:39:45,0.00,0.06,0.00,24.10,27.27,29.95,13.82,41.94,1016.11,2033.01,3550.01,3072.00,3521.98,600.34,593.89,6.93,0000 0000 0000 0000 000000
2017-09-07 05:44:47,0.00,0.06,0.00,24.10,27.27,29.97,13.76,41.82,1016.12,2033.01,3550.00,3072.00,3521.96,599.59,593.07,6.98,0000 0000 0000 0000 000000
2017-09-07 05:49:48,0.00,0.06,0.00,24.15,27.27,29.96,13.76,41.54,1016.12,2033.02,3550.00,3072.00,3521.95,599.73,593.16,7.03,0000 0000 0000 0000 000000
2017-09-07 05:54:49,0.00,0.06,0.00,24.12,27.28,29.96,13.78,41.68,1016.13,2033.00,3550.00,3072.00,3521.67,600.38,593.69,7.09,0000 0000 0000 0000 000000
2017-09-07 05:59:51,0.00,0.06,0.00,24.06,27.29,29.96,13.82,42.17,1016.13,2033.00,3549.95,3072.00,3521.16,599.77,593.35,7.14,0000 0000 0000 0000 000000
2017-09-07 06:04:52,0.00,0.06,0.00,24.13,27.30,29.97,13.78,41.96,1016.13,2033.00,3549.87,3071.97,3521.02,599.26,592.61,7.19,0000 0000 0000 0000 000000
2017-09-07 06:09:53,0.01,0.06,0.00,24.07,27.30,29.98,13.75,41.57,1016.14,2033.00,3549.54,3071.95,3521.00,599.63,593.49,7.24,0000 0000 0000 0000 000000
2017-09-07 06:14:54,-0.00,0.06,0.00,24.03,27.30,29.99,13.77,41.62,1016.14,2033.00,3549.36,3071.95,3521.00,600.00,593.57,7.29,0000 0000 0000 0000 000000
2017-09-07 06:19:56,0.00,0.06,0.00,24.10,27.30,29.99,13.79,42.12,1016.13,2032.99,3549.12,3071.88,3521.00,600.01,593.55,7.34,0000 0000 0000 0000 000000
2017-09-07 06:24:57,0.00,0.06,0.00,24.08,27.30,29.99,13.75,41.75,1016.14,2032.99,3549.04,3071.89,3521.00,600.06,593.72,7.39,0000 0000 0000 0000 000000
2017-09-07 06:29:59,0.00,0.06,0.00,24.07,27.32,29.99,13.79,41.71,1016.14,2032.99,3549.01,3071.74,3521.00,600.01,593.57,7.44,0000 0000 0000 0000 000000
2017-09-07 06:35:00,0.00,0.06,0.00,24.06,27.32,30.00,13.76,41.73,1016.14,2032.99,3549.01,3071.80,3521.00,599.67,593.26,7.49,0000 0000 0000 0000 000000
2017-09-07 06:40:01,0.01,0.06,0.00,24.12,27.32,30.00,13.77,41.54,1016.14,2032.99,3549.00,3071.49,3520.98,600.23,593.72,7.54,0000 0000 0000 0000 000000
2017-09-07 06:45:03,-0.00,0.06,0.00,24.05,27.32,30.01,13.81,41.56,1016.17,2032.99,3548.99,3071.46,3520.96,599.94,593.59,7.59,0000 0000 0000 0000 000000
2017-09-07 06:50:04,0.01,0.06,0.00,24.15,27.33,30.01,13.72,42.07,1016.17,2032.99,3548.99,3071.35,3520.93,600.12,593.66,7.64,0000 0000 0000 0000 000000
2017-09-07 06:55:06,0.01,0.06,0.00,24.09,27.34,30.02,13.85,42.25,1016.29,2032.99,3548.96,3071.06,3520.72,600.67,594.20,7.69,0000 0000 0000 0000 000000
2017-09-07 07:00:07,-0.00,0.06,0.00,24.13,27.35,30.02,13.76,41.64,1016.48,2032.99,3548.98,3071.13,3520.67,599.48,593.17,7.74,0000 0000 0000 0000 000000
2017-09-07 07:05:09,0.01,0.06,0.00,24.07,27.35,30.02,13.83,41.99,1016.61,2032.99,3548.87,3071.06,3520.22,599.90,593.85,7.79,0000 0000 0000 0000 000000
2017-09-07 07:10:10,-0.00,0.06,0.00,24.10,27.35,30.03,13.81,42.17,1016.62,2032.99,3548.80,3071.02,3520.14,600.98,594.74,7.84,0000 0000 0000 0000 000000
2017-09-07 07:15:12,0.00,0.06,0.00,24.06,27.35,30.03,13.73,42.16,1016.62,2032.99,3548.68,3071.04,3520.03,599.83,593.69,7.89,0000 0000 0000 0000 000000
2017-09-07 07:20:13,-0.00,0.06,0.00,24.08,27.35,30.02,13.71,41.34,1016.63,2032.99,3548.65,3071.03,3520.05,599.87,593.77,7.94,0000 0000 0000 0000 000000
2017-09-07 07:25:14,0.01,0.07,0.00,24.02,27.35,30.02,13.76,42.15,1016.63,2032.99,3548.16,3071.01,3520.02,599.99,593.77,7.99,0000 0000 0000 0000 000000
2017-09-07 07:30:15,-0.00,0.07,0.00,24.07,27.35,30.03,13.74,41.53,1016.66,2032.99,3548.24,3071.01,3520.01,600.17,594.04,8.04,0000 0000 0000 0000 000000
2017-09-07 07:35:17,0.00,0.07,0.00,23.99,27.37,30.03,13.74,41.52,1016.72,2032.99,3548.07,3071.02,3520.00,600.21,594.25,8.09,0000 0000 0000 0000 000000
2017-09-07 07:40:18,0.00,0.07,0.00,24.06,27.37,30.05,13.86,41.59,1016.83,2032.98,3548.00,3071.00,3520.00,600.37,594.34,8.14,0000 0000 0000 0000 000000
2017-09-07 07:45:19,0.00,0.07,0.00,24.13,27.37,30.04,13.80,41.63,1016.94,2032.99,3548.00,3071.00,3520.00,600.07,594.04,8.19,0000 0000 0000 0000 000000
2017-09-07 07:50:21,0.00,0.07,0.00,24.12,27.37,30.05,13.79,41.48,1017.04,2032.99,3548.00,3071.00,3520.00,600.23,594.16,8.24,0000 0000 0000 0000 000000
2017-09-07 07:55:22,0.00,0.07,0.00,24.01,27.37,30.07,13.80,41.58,1017.10,2032.98,3548.00,3071.00,3519.99,599.82,593.94,8.29,0000 0000 0000 0000 000000
2017-09-07 08:00:23,0.00,0.07,0.00,23.94,27.37,30.09,13.83,41.52,1017.10,2032.98,3548.00,3071.00,3519.99,600.25,594.52,8.34,0000 0000 0000 0000 000000
2017-09-07 08:05:24,0.00,0.07,0.00,24.03,27.37,30.06,13.79,41.54,1017.10,2032.98,3547.95,3071.00,3519.91,599.62,593.86,8.39,0000 0000 0000 0000 000000
2017-09-07 08:10:25,0.00,0.07,0.00,24.18,27.38,30.04,13.79,41.58,1017.10,2032.96,3547.64,3071.00,3519.63,599.77,593.79,8.44,0000 0000 0000 0000 000000
2017-09-07 08:15:26,-0.00,0.07,0.00,24.18,27.38,30.06,13.76,41.44,1017.12,2032.96,3547.76,3070.99,3519.48,599.75,593.72,8.49,0000 0000 0000 0000 000000
2017-09-07 08:20:27,0.79,0.08,0.00,24.06,27.39,30.06,13.78,41.59,1017.13,2032.88,3536.23,3064.38,3512.04,599.73,593.95,8.54,0000 0000 0000 0000 000000
2017-09-07 08:25:29,0.09,0.11,0.00,24.06,27.39,30.08,13.82,41.64,1017.14,2032.77,3525.14,3058.08,3505.12,600.04,594.25,8.59,0000 0000 0000 0000 000000
2017-09-07 08:30:30,-0.01,0.11,0.00,24.13,27.40,30.07,13.78,41.69,1017.13,2032.71,3525.00,3058.00,3505.01,600.43,594.50,8.64,0000 0000 0000 0000 000000
2017-09-07 08:35:31,0.01,0.11,0.00,24.14,27.40,30.08,13.79,41.70,1017.22,2032.73,3525.00,3058.00,3505.01,600.47,594.48,8.69,0000 0000 0000 0000 000000
2017-09-07 08:40:32,-0.00,0.11,0.00,24.15,27.40,30.06,13.80,41.71,1017.38,2032.73,3524.99,3058.00,3505.00,600.06,594.23,8.74,0000 0000 0000 0000 000000
2017-09-07 08:45:33,-0.00,0.11,0.00,24.06,27.40,30.09,13.79,41.58,1017.54,2032.79,3524.99,3058.00,3505.00,600.00,594.52,8.79,0000 0000 0000 0000 000000
2017-09-07 08:50:34,0.01,0.11,0.00,24.09,27.40,30.07,13.82,41.68,1017.46,2032.88,3524.98,3058.00,3505.00,599.92,594.18,8.84,0000 0000 0000 0000 000000
2017-09-07 08:55:36,0.00,0.11,0.00,24.05,27.40,30.10,13.84,42.09,1017.47,2032.90,3524.81,3058.00,3505.00,599.93,594.37,8.89,0000 0000 0000 0000 000000
2017-09-07 09:00:37,-0.00,0.11,0.00,24.06,27.40,30.07,13.79,41.83,1017.47,2032.80,3524.41,3058.00,3504.99,600.23,594.73,8.94,0000 0000 0000 0000 000000
2017-09-07 09:05:39,0.00,0.11,0.00,24.07,27.40,30.06,13.83,41.59,1017.54,2032.80,3524.12,3057.98,3504.98,599.97,594.37,8.99,0000 0000 0000 0000 000000
2017-09-07 09:10:40,0.01,0.11,0.00,24.09,27.40,30.09,13.78,41.71,1017.54,2032.80,3524.01,3057.98,3504.93,600.16,594.50,9.04,0000 0000 0000 0000 000000
2017-09-07 09:15:41,0.00,0.11,0.00,24.08,27.40,30.07,13.80,41.67,1017.57,2032.90,3524.00,3057.98,3504.95,599.71,594.14,9.09,0000 0000 0000 0000 000000
2017-09-07 09:20:42,-0.00,0.11,0.00,24.11,27.40,30.09,13.74,41.67,1017.57,2032.91,3524.00,3057.97,3504.71,599.86,594.21,9.14,0000 0000 0000 0000 000000
2017-09-07 09:25:43,0.01,0.11,0.00,24.05,27.40,30.09,13.75,41.63,1017.59,2032.88,3524.00,3057.97,3504.51,600.03,594.61,9.19,0000 0000 0000 0000 000000
2017-09-07 09:30:44,-0.00,0.11,0.00,24.13,27.40,30.08,13.78,41.92,1017.59,2032.87,3523.99,3057.94,3504.25,599.84,594.24,9.24,0000 0000 0000 0000 000000
2017-09-07 09:35:46,0.01,0.11,0.00,24.04,27.40,30.11,13.89,41.73,1017.59,2032.92,3523.96,3057.95,3504.12,600.23,594.65,9.29,0000 0000 0000 0000 000000
2017-09-07 09:40:47,-0.00,0.11,0.00,24.07,27.40,30.09,13.81,41.80,1017.59,2032.92,3523.92,3057.92,3504.05,600.65,595.11,9.34,0000 0000 0000 0000 000000
2017-09-07 09:45:48,-0.00,0.11,0.00,24.08,27.40,30.09,13.73,41.59,1017.59,2032.73,3523.60,3057.76,3504.01,598.97,593.39,9.39,0000 0000 0000 0000 000000
2017-09-07 09:50:49,0.01,0.11,0.00,24.12,27.40,30.06,13.83,41.48,1017.59,2032.81,3523.26,3057.67,3504.00,600.62,594.91,9.45,0000 0000 0000 0000 000000
2017-09-07 09:55:51,0.01,0.11,0.00,24.00,27.40,30.09,13.76,41.37,1017.59,2032.92,3523.12,3057.69,3504.00,599.85,594.35,9.50,0000 0000 0000 0000 000000
2017-09-07 10:00:52,-0.00,0.11,0.00,24.03,27.40,30.10,13.85,41.62,1017.61,2032.93,3523.13,3057.77,3504.01,599.83,594.36,9.55,0000 0000 0000 0000 000000
2017-09-07 10:05:53,0.00,0.11,0.00,24.15,27.40,30.06,13.82,41.48,1017.61,2032.95,3523.06,3057.73,3504.00,600.28,594.53,9.60,0000 0000 0000 0000 000000
2017-09-07 10:10:54,0.01,0.11,0.00,24.04,27.40,30.07,13.73,41.86,1017.60,2032.94,3523.00,3057.45,3504.00,599.71,594.24,9.65,0000 0000 0000 0000 000000
2017-09-07 10:15:56,0.01,0.11,0.00,24.06,27.40,30.09,13.72,41.57,1017.60,2032.94,3523.00,3057.34,3504.00,599.47,593.92,9.70,0000 0000 0000 0000 000000
2017-09-07 10:20:57,0.00,0.11,0.00,24.15,27.40,30.08,13.71,41.48,1017.60,2032.98,3522.99,3057.19,3504.00,599.55,593.87,9.75,0000 0000 0000 0000 000000
2017-09-07 10:25:59,-0.00,0.11,0.00,24.08,27.40,30.07,13.77,41.63,1017.63,2032.98,3522.99,3057.25,3503.99,600.11,594.51,9.80,0000 0000 0000 0000 000000
2017-09-07 10:31:00,0.00,0.11,0.00,24.05,27.40,30.09,13.73,41.58,1017.75,2032.96,3522.99,3057.15,3503.99,599.64,594.25,9.85,0000 0000 0000 0000 000000
2017-09-07 10:36:01,-0.00,0.11,0.00,24.08,27.40,30.09,13.87,41.63,1017.80,2032.98,3522.99,3057.25,3503.98,600.35,594.91,9.90,0000 0000 0000 0000 000000
2017-09-07 10:41:02,0.00,0.11,0.00,24.07,27.39,30.09,13.85,41.65,1018.03,2032.96,3522.99,3057.36,3503.97,599.93,594.78,9.95,0000 0000 0000 0000 000000
2017-09-07 10:46:03,-0.00,0.11,0.00,24.07,27.39,30.09,13.81,41.57,1018.08,2032.94,3522.99,3057.47,3503.97,600.13,594.96,10.00,0000 0000 0000 0000 000000
2017-09-07 10:51:04,0.01,0.11,0.00,24.09,27.39,30.07,13.81,41.60,1018.07,2032.96,3522.96,3057.25,3503.84,600.20,594.84,10.05,0000 0000 0000 0000 000000
2017-09-07 10:56:06,0.01,0.12,0.00,24.02,27.38,30.09,13.79,41.73,1018.07,2032.96,3522.92,3057.09,3503.36,600.01,594.78,10.10,0000 0000 0000 0000 000000
2017-09-07 11:01:07,0.01,0.12,0.00,24.06,27.38,30.13,13.81,41.65,1018.08,2032.93,3522.66,3057.06,3503.13,599.61,594.34,10.15,0000 0000 0000 0000 000000
2017-09-07 11:06:09,0.00,0.12,0.00,24.14,27.37,30.08,13.83,41.90,1018.08,2032.89,3522.17,3057.02,3503.02,600.32,594.94,10.20,0000 0000 0000 0000 000000
2017-09-07 11:11:10,0.00,0.12,0.00,24.12,27.38,30.09,13.80,41.64,1018.08,2032.90,3522.07,3057.02,3503.01,599.51,594.16,10.25,0000 0000 0000 0000 000000
2017-09-07 11:16:12,0.00,0.12,0.00,24.07,27.38,30.12,13.80,41.69,1018.08,2032.94,3522.05,3057.02,3503.00,599.74,594.43,10.30,0000 0000 0000 0000 000000
2017-09-07 11:21:13,0.00,0.12,0.00,24.05,27.37,30.09,13.82,41.70,1018.08,2032.93,3522.03,3057.03,3503.00,599.87,594.54,10.35,0000 0000 0000 0000 000000
2017-09-07 11:26:14,0.00,0.12,0.00,24.07,27.37,30.08,13.82,41.58,1018.08,2032.97,3522.00,3057.04,3503.00,600.29,595.07,10.40,0000 0000 0000 0000 000000
2017-09-07 11:31:15,-0.00,0.12,0.00,24.07,27.37,30.08,13.88,42.21,1018.08,2032.95,3522.00,3057.02,3503.00,600.91,595.62,10.45,0000 0000 0000 0000 000000
2017-09-07 11:36:16,-0.00,0.12,0.00,24.12,27.37,30.08,13.74,41.47,1018.08,2032.95,3522.00,3057.03,3503.00,599.90,594.54,10.50,0000 0000 0000 0000 000000
2017-09-07 11:41:18,0.00,0.12,0.00,24.11,27.37,30.09,13.80,41.59,1018.08,2032.97,3521.92,3057.00,3502.96,599.99,594.68,10.55,0000 0000 0000 0000 000000
2017-09-07 11:46:19,0.06,0.12,0.00,24.10,27.37,30.09,13.86,41.65,1018.08,2032.94,3520.19,3056.16,3502.08,600.22,594.92,10.60,0000 0000 0000 0000 000000
2017-09-07 11:51:20,0.00,0.12,0.00,24.14,27.37,30.09,13.79,41.55,1018.08,2032.91,3519.99,3056.02,3501.93,599.89,594.49,10.65,0000 0000 0000 0000 000000
2017-09-07 11:56:22,0.00,0.12,0.00,24.05,27.37,30.08,13.72,41.48,1018.08,2032.95,3519.96,3056.02,3501.84,599.53,594.41,10.70,0000 0000 0000 0000 000000
2017-09-07 12:01:23,0.00,0.12,0.00,24.09,27.37,30.07,13.83,41.65,1018.08,2032.93,3519.98,3056.02,3501.78,599.99,594.70,10.75,0000 0000 0000 0000 000000
2017-09-07 12:06:24,-0.01,0.12,0.00,24.08,27.37,30.08,13.80,41.73,1018.08,2032.90,3519.99,3056.04,3501.74,599.96,594.73,10.80,0000 0000 0000 0000 000000
2017-09-07 12:11:25,0.02,0.12,0.00,24.17,27.37,30.10,13.80,41.72,1018.08,2032.94,3519.67,3056.02,3501.68,600.13,594.69,10.85,0000 0000 0000 0000 000000
2017-09-07 12:16:27,0.01,0.12,0.00,24.12,27.37,30.10,13.84,41.83,1018.08,2032.97,3519.23,3056.00,3501.31,600.14,594.77,10.90,0000 0000 0000 0000 000000
2017-09-07 12:21:28,-0.00,0.12,0.00,24.14,27.37,30.08,13.89,41.59,1018.08,2032.94,3519.25,3056.01,3501.11,600.22,594.77,10.95,0000 0000 0000 0000 000000
2017-09-07 12:26:29,0.00,0.12,0.00,24.08,27.37,30.11,13.78,41.64,1018.08,2032.97,3519.24,3056.02,3501.18,600.12,594.84,11.00,0000 0000 0000 0000 000000
2017-09-07 12:31:30,0.00,0.12,0.00,24.08,27.37,30.12,13.82,41.52,1018.08,2032.98,3519.03,3056.00,3501.10,600.18,594.80,11.05,0000 0000 0000 0000 000000
2017-09-07 12:36:31,0.00,0.12,0.00,24.14,27.37,30.08,13.83,41.57,1018.08,2032.98,3519.00,3056.00,3501.01,600.22,594.84,11.10,0000 0000 0000 0000 000000
2017-09-07 12:41:32,0.00,0.12,0.00,24.11,27.37,30.07,13.80,41.55,1018.08,2032.99,3519.01,3056.00,3501.01,600.43,595.03,11.15,0000 0000 0000 0000 000000
2017-09-07 12:46:34,-0.00,0.12,0.00,24.13,27.37,30.09,13.82,41.67,1018.08,2032.97,3519.00,3056.00,3501.00,599.83,594.42,11.20,0000 0000 0000 0000 000000
2017-09-07 12:51:35,0.00,0.12,0.00,24.14,27.36,30.07,13.85,41.43,1018.08,2032.99,3519.00,3056.01,3501.00,600.08,594.63,11.25,0000 0000 0000 0000 000000
2017-09-07 12:56:37,0.00,0.12,0.00,24.17,27.35,30.07,13.78,41.62,1018.05,2032.98,3519.00,3056.00,3501.00,599.83,594.34,11.30,0000 0000 0000 0000 000000
2017-09-07 13:01:38,0.00,0.12,0.00,24.12,27.35,30.08,13.82,41.58,1018.06,2032.99,3518.99,3056.00,3501.00,599.67,594.32,11.35,0000 0000 0000 0000 000000